Tracking 19250 objects as of 24-Sep-2018
HD Live streaming from Space Station
objects crossing your sky now

GP-B

Track GP-B now!
10-day predictions
GP-B is classified as:


NORAD ID: 28230
Int'l Code: 2004-014A
Perigee: 639.3 km
Apogee: 642.3 km
Inclination: 89.8 °
Period: 97.4 minutes
Semi major axis: 7011 km
RCS: 10.7347 m2 (large)
Launch date: April 20, 2004
Source: United States (US)
Launch site: AIR FORCE WESTERN TEST RANGE (AFWTR)
aabbcc
Your satellite tracking list
Your tracking list is empty




NASA's NSSDC Master Catalog

Two Line Element Set (TLE):
1 28230U 04014A   18266.61517134 +.00000124 +00000-0 +14632-4 0  9992
2 28230 089.8270 112.7179 0002143 075.9009 284.2452 14.78638593234773
Source of the keplerian elements: AFSPC